Regional Weather Roundup
Issued by NWS

Home | Current Version | Previous Version | Graphics & Text | Print | Product List | Glossary On
Versions: 1 2 3 4 5 6 7 8 9 10 11 12 13 14 15 16 17 18 19 20 21 22 23 24 25 26 27 28 29 30 31 32 33 34 35 36 37 38 39 40 41 42 43 44 45 46 47 48 49 50
000
ASUS45 KBOI 051310
RWRID

IDAHO REGIONAL WEATHER ROUNDUP
NATIONAL WEATHER SERVICE BOISE ID
700 AM MDT SAT SEP 05 2015

NOTE: "FAIR" INDICATES FEW OR NO CLOUDS BELOW 12000 FEET
WITH NO SIGNIFICANT WEATHER AND/OR OBSTRUCTIONS TO VISIBILITY

IDZ012-014-051400-
SOUTHWEST IDAHO


CITY           SKY/WX    TMP DP  RH WIND       PRES   REMARKS
BOISE          MOCLDY    47  38  71 S3        29.97R
CALDWELL       CLOUDY    48  32  53 CALM      29.98R
MOUNTAIN HOME  CLEAR     47  37  67 N8        29.97R
$$

IDZ016-017-051400-
SOUTHCENTRAL IDAHO


CITY           SKY/WX    TMP DP  RH WIND       PRES   REMARKS
BURLEY         CLOUDY    49  37  63 W9        29.95R
JEROME         CLOUDY    47  37  68 SW10      29.96R
TWIN FALLS     CLOUDY    49  36  61 W9        29.97R
$$

IDZ019>023-051400-
SOUTHEAST IDAHO


CITY           SKY/WX    TMP DP  RH WIND       PRES   REMARKS
IDAHO FALLS    PTCLDY    48  36  63 S20       29.93R
POCATELLO      PTCLDY    49  36  61 SW13      29.95R
REXBURG        PTCLDY    47  36  65 S17       29.91R
$$

IDZ006-010-011-018-031-032-051400-
CENTRAL IDAHO MOUNTAINS


CITY           SKY/WX    TMP DP  RH WIND       PRES   REMARKS
MCCALL         CLOUDY    40  37  89 SE5       29.91R
HAILEY         CLOUDY    46  37  71 SE17G23   29.93R
STANLEY          N/A     40  32  73 W3        29.93R
SALMON         CLOUDY    48  45  87 CALM      29.87F
CHALLIS        CLOUDY    49  35  58 S10       29.88F
$$

IDZ002-004-006-007-026-051400-
NORTHERN IDAHO


CITY           SKY/WX    TMP DP  RH WIND       PRES   REMARKS
LEWISTON       CLOUDY    51  46  83 S9        29.88R
LOWELL           N/A     53  51  93 CALM      29.88R
COEUR D`ALENE  CLOUDY    50  46  87 S9        29.83R
MULLAN PASS    FOG       39  39 100 VRB7      29.87R VSB 1/4 WCI  34
$$



USA.gov is the U.S. government's official web portal to all federal, state and local government web resources and services.